IT9RID Weather Reports


time (UTC)temp
F
wind
direction
speed
knots
gust
knots
rain 1hr
in
rain 24hr
in
rain mn
in
humidity
%
barometer
mb
20260504050353 54 215 0.0 0.0 0.00 0.00 0.00 60 1019.8
20260504045352 53 212 0.0 1.7 0.00 0.00 0.00 61 1019.8
20260504044353 53 216 0.0 2.6 0.00 0.00 0.00 61 1019.7
20260504043352 53 198 0.0 2.6 0.00 0.00 0.00 61 1019.7
20260504042352 52 223 0.0 1.7 0.00 0.00 0.00 62 1019.6
20260504041352 52 207 2.6 2.6 0.00 0.00 0.00 61 1019.6
20260504040352 52 211 2.6 3.5 0.00 0.00 0.00 62 1019.5
20260504035351 52 208 0.0 0.0 0.00 0.00 0.00 63 1019.4
20260504034351 52 208 0.0 2.6 0.00 0.00 0.00 62 1019.4
20260504033351 53 207 0.0 2.6 0.00 0.00 0.00 61 1019.4
20260504032351 52 208 0.9 2.6 0.00 0.00 0.00 62 1019.5
20260504031351 52 203 0.0 1.7 0.00 0.00 0.00 63 1019.5
20260504030351 51 223 0.0 2.6 0.00 0.00 0.00 66 1019.5
20260504025351 51 209 0.0 0.0 0.00 0.00 0.00 66 1019.6
20260504024350 51 209 0.0 0.0 0.00 0.00 0.00 66 1019.6
20260504023350 52 209 0.0 0.9 0.00 0.00 0.00 63 1019.6
20260504022350 52 200 0.0 2.6 0.00 0.00 0.00 63 1019.6
20260504021350 53 192 0.0 1.7 0.00 0.00 0.00 62 1019.7
20260504020350 52 186 0.0 0.0 0.00 0.00 0.00 63 1019.5
20260504015350 53 184 0.0 0.0 0.00 0.00 0.00 63 1019.5
20260504014349 53 192 0.9 4.3 0.00 0.00 0.00 62 1019.4
20260504013349 53 208 0.0 2.6 0.00 0.00 0.00 63 1019.3
20260504012350 53 204 0.0 3.5 0.00 0.00 0.00 62 1019.3
20260504011349 52 180 2.6 3.5 0.00 0.00 0.00 63 1019.3
20260504010349 53 194 0.0 1.7 0.00 0.00 0.00 62 1019.4
20260504005349 53 198 0.0 0.0 0.00 0.00 0.00 63 1019.6
20260504004349 52 186 0.0 1.7 0.00 0.00 0.00 65 1019.6
20260504003348 53 204 0.0 0.9 0.00 0.00 0.00 65 1019.7
20260504002348 53 209 0.0 0.0 0.00 0.00 0.00 66 1019.7
20260504001357 53 209 0.0 0.0 0.00 0.00 0.00 67 1019.7
20260504000348 53 208 0.0 3.5 0.00 0.00 0.00 69 1019.8
20260503235348 53 215 0.0 0.0 0.00 0.00 0.00 69 1019.8
20260503234348 54 215 0.0 2.6 0.00 0.00 0.00 69 1019.9
20260503233347 54 209 2.6 3.5 0.00 0.00 0.00 71 1020.0
20260503232347 53 211 0.0 2.6 0.00 0.00 0.00 72 1020.1
20260503231350 54 213 0.0 1.7 0.00 0.00 0.00 73 1020.0
20260503230347 53 202 0.0 0.0 0.00 0.00 0.00 74 1020.2
20260503225347 54 200 0.0 0.0 0.00 0.00 0.00 74 1020.3
20260503224347 54 199 0.0 0.0 0.00 0.00 0.00 74 1020.4
20260503223347 54 198 0.0 0.0 0.00 0.00 0.00 74 1020.4
20260503222346 54 213 0.0 0.0 0.00 0.00 0.00 75 1020.4
20260503221346 55 229 2.6 4.3 0.00 0.00 0.00 76 1020.3
20260503220346 55 194 0.0 0.0 0.00 0.00 0.00 76 1020.4
20260503215346 55 194 0.0 0.9 0.00 0.00 0.00 76 1020.3
20260503214346 55 215 0.0 0.0 0.00 0.00 0.00 77 1020.4
20260503213345 56 197 0.0 3.5 0.00 0.00 0.00 76 1020.3
20260503212345 56 213 0.0 0.0 0.00 0.00 0.00 76 1020.3
20260503211345 56 214 0.0 0.9 0.00 0.00 0.00 77 1020.3
20260503210406 56 215 0.0 0.0 0.00 0.00 0.00 78 1020.5
20260503205345 56 213 0.0 2.6 0.00 0.00 0.00 78 1020.5
20260503204405 56 214 0.0 0.0 0.00 0.00 0.00 79 1020.5
20260503203345 56 215 0.0 1.7 0.00 0.00 0.00 78 1020.6
20260503202345 57 211 0.0 2.6 0.00 0.00 0.00 78 1020.5
20260503201344 57 207 2.6 3.5 0.00 0.00 0.00 78 1020.5
20260503200344 56 207 1.7 1.7 0.00 0.00 0.00 78 1020.3
20260503195344 57 187 0.0 0.9 0.00 0.00 0.00 78 1020.4
20260503194344 57 178 0.0 0.0 0.00 0.00 0.00 78 1020.3
20260503193344 58 154 0.0 2.6 0.00 0.00 0.00 79 1020.4
20260503192344 58 216 0.0 0.0 0.00 0.00 0.00 79 1020.4
20260503191343 59 216 0.0 0.0 0.00 0.00 0.00 79 1020.2
20260503190343 59 216 0.0 0.0 0.00 0.00 0.00 79 1020.3
20260503185343 59 242 0.0 0.0 0.00 0.00 0.00 78 1020.2
20260503184343 60 253 0.0 0.9 0.00 0.00 0.00 77 1020.0
20260503183343 60 257 0.0 0.0 0.00 0.00 0.00 76 1019.9
20260503182343 61 257 0.0 0.0 0.00 0.00 0.00 75 1019.7
20260503181343 61 257 0.0 0.0 0.00 0.00 0.00 74 1019.7
20260503180342 62 257 0.0 0.0 0.00 0.00 0.00 73 1019.6
20260503175342 63 258 2.6 2.6 0.00 0.00 0.00 71 1019.5
20260503174401 63 323 0.0 0.0 0.00 0.00 0.00 71 1019.5
20260503172342 63 248 0.0 2.6 0.00 0.00 0.00 71 1019.6
20260503171341 64 242 0.0 2.6 0.00 0.00 0.00 70 1019.4
20260503170341 64 278 0.0 1.7 0.00 0.00 0.00 70 1019.4
20260503150339 66 333 0.9 3.5 0.00 0.00 0.00 66 1019.8
20260503131339 66 233 3.5 5.2 0.00 0.00 0.00 64 1020.4
20260503130338 66 291 0.9 8.7 0.00 0.00 0.00 62 1020.4
20260503110336 65 242 0.9 8.7 0.00 0.00 0.00 63 1021.1
20260503090334 63 321 5.2 8.7 0.00 0.00 0.00 60 1021.7
20260503081333 64 315 4.3 8.7 0.00 0.00 0.00 56 1021.4
20260503080333 63 314 0.9 5.2 0.00 0.00 0.00 57 1021.5
20260503072332 63 247 2.6 3.5 0.00 0.00 0.00 57 1021.3
20260503071332 62 308 2.6 4.3 0.00 0.00 0.00 57 1021.4
20260503070332 63 302 0.0 2.6 0.00 0.00 0.00 56 1021.3
20260503060331 56 236 0.0 0.0 0.00 0.00 0.00 69 1021.3
20260503054331 55 221 0.9 1.7 0.00 0.00 0.00 70 1021.3
20260503053331 54 194 0.0 2.6 0.00 0.00 0.00 71 1021.2
20260503052330 53 215 3.5 4.3 0.00 0.00 0.00 71 1021.1